CDT,Max TemperatureF,Mean TemperatureF,Min TemperatureF,Max Dew PointF,MeanDew PointF,Min DewpointF,Max Humidity, Mean Humidity, Min Humidity, Max Sea Level PressureIn, Mean Sea Level PressureIn, Min Sea Level PressureIn, Max VisibilityMiles, Mean VisibilityMiles, Min VisibilityMiles, Max Wind SpeedMPH, Mean Wind SpeedMPH, Max Gust SpeedMPH,PrecipitationIn, CloudCover, Events, WindDirDegrees
2013-3-1,31,23,14,14,12,9,74,59,43,30.35,30.31,30.25,10,10,10,15,8,21,T,3,,28
2013-3-2,28,15,2,10,7,-1,91,69,46,30.37,30.29,30.21,10,10,10,10,3,12,0.00,1,,342
2013-3-3,33,18,3,8,4,-1,91,62,32,30.20,30.13,30.07,10,10,10,9,3,9,0.00,1,,53
2013-3-4,28,21,13,19,12,-2,81,62,42,30.09,30.06,29.99,10,8,2,15,9,20,0.02,7,Snow,93
2013-3-5,28,25,22,22,20,18,92,83,74,30.25,30.07,29.98,10,3,0,16,8,20,0.34,8,Fog-Snow,35
2013-3-6,30,20,9,18,13,7,92,71,50,30.40,30.35,30.21,10,10,7,15,7,20,T,4,,323
2013-3-7,35,18,0,14,5,-4,100,71,41,30.45,30.38,30.33,10,6,0,13,3,15,0.00,0,Fog,92
2013-3-8,40,27,13,26,20,11,84,69,54,30.40,30.32,30.18,10,10,7,14,6,17,0.00,0,,139
2013-3-9,36,34,31,35,31,23,100,83,66,30.16,29.88,29.72,10,3,0,18,7,24,0.98,8,Fog-Rain-Snow,137
2013-3-10,37,34,30,34,30,27,100,88,75,29.91,29.83,29.74,10,5,0,18,9,25,0.26,8,Fog-Snow,16
2013-3-11,32,29,25,28,24,19,92,81,69,29.81,29.72,29.66,10,6,1,16,9,22,0.18,8,Snow,350
2013-3-12,29,24,18,22,15,9,84,65,46,30.14,29.94,29.80,10,9,2,18,11,25,T,7,Snow,300
2013-3-13,31,22,12,12,6,2,67,49,31,30.35,30.28,30.11,10,10,7,14,7,17,T,1,Snow,284
2013-3-14,35,25,15,27,19,11,84,76,67,30.30,30.17,30.04,10,8,1,10,4,13,0.03,5,Snow,166
2013-3-15,34,30,25,28,26,22,92,81,69,30.02,29.90,29.83,10,3,0,14,6,18,0.28,7,Fog-Snow,45
2013-3-16,26,19,12,23,13,4,92,71,50,30.23,30.02,29.84,10,8,2,15,9,20,0.04,6,Rain-Snow,351
2013-3-17,28,15,2,12,4,-3,87,65,42,30.30,30.18,29.99,10,10,10,18,9,25,0.00,1,,93
2013-3-18,28,22,15,25,17,8,92,80,68,29.98,29.68,29.55,10,3,0,24,12,30,0.34,8,Fog-Snow,186
2013-3-19,23,16,8,9,3,-3,73,57,41,30.13,29.93,29.68,10,10,7,23,16,32,T,2,Snow,276
2013-3-20,19,10,1,1,-3,-7,83,66,49,30.16,30.14,30.10,10,9,3,20,9,25,T,1,,292
2013-3-21,24,10,-4,7,1,-8,91,71,50,30.15,30.11,30.08,10,9,3,9,3,12,0.00,0,,258
2013-3-22,35,18,1,13,7,-1,95,67,38,30.12,30.09,30.05,10,10,6,8,2,10,0.00,0,,270
2013-3-23,37,23,9,21,16,9,92,70,47,30.17,30.13,30.09,10,10,9,10,4,13,0.00,1,,16
2013-3-24,33,29,24,23,20,16,75,67,59,30.10,30.01,29.95,10,10,10,18,8,25,0.00,7,,22
2013-3-25,38,27,16,22,17,12,88,66,44,30.21,30.09,29.98,10,10,10,15,6,21,0.00,4,,352
2013-3-26,38,30,21,23,20,17,84,64,44,30.29,30.26,30.21,10,10,10,12,3,14,T,8,,279
2013-3-27,42,33,24,23,18,12,78,54,29,30.35,30.32,30.30,10,10,10,13,1,20,0.00,4,,290
2013-3-28,43,30,16,20,17,13,92,61,29,30.38,30.34,30.31,10,9,4,8,1,10,0.00,0,,292
2013-3-29,45,31,17,26,21,15,92,65,37,30.34,30.27,30.14,10,10,6,12,4,14,0.00,4,,162
2013-3-30,41,36,31,39,35,26,100,80,60,30.12,29.88,29.82,10,3,0,16,6,21,0.67,7,Fog-Rain,217
2013-3-31,39,32,25,31,24,11,100,68,35,30.03,29.82,29.75,10,6,0,22,11,29,T,5,Fog-Snow,288